Flag for Germany Weather past 2 weeks in Offenburg, Baden-Württemberg, Germany

Now
64 °F

Sunny.


Feels Like: 64 °F
Forecast: 47 / 70 °F
Wind: 15 mph from Northeast

Location: Lahr - CAN-AFB

Current Time: May 22, 2015 at 10:45:14 PM

Latest Report: May 22, 2015 at 7:50 PM


Visibility: 10 mi

Pressure: 30.15 "Hg

Humidity: 37%

Dew point: 37 °F

Location of OffenburgLocation

Historic Weather in Offenburg — Graph

°F

Offenburg temperature yesterday

Maximum temperature yesterday: 63 °F (at 3:50 PM)
Minimum temperature yesterday: 46 °F (at 7:50 AM)
Average temperature yesterday: 58 °F

Past Weeks' High & Low Weather Summary

 TemperatureHumidityPressure
High86 °F (May 12, 2:50 PM)100% (May 16, 8:50 AM)30.33 "Hg (May 16, 8:50 AM)
Low46 °F (May 18, 6:20 AM)28% (May 11, 6:20 PM)29.74 "Hg (May 18, 6:20 PM)
Average63 °F58%30.06 "Hg
* Reported May 7 7:20 PM — May 22 7:50 PM, Offenburg, Weather by CustomWeather, © 2015

Note: Actual official high and low records may vary slightly from our data, if they occured in-between our weather recording intervals... More about our weather records

Advertising

Offenburg weather history for previous 24 hours

 ConditionsComfort  
Time TempWeatherWind HumidityBarometerVisibility
7:50 PM
Fri, May 22
64 °FSunny.15 mph37%30.15 "Hg10 mi
7:20 PM64 °FSunny.14 mph37%30.15 "Hg10 mi
6:50 PM66 °FSunny.14 mph35%30.15 "Hg10 mi
6:20 PM66 °FSunny.15 mph37%30.15 "Hg10 mi
5:50 PM66 °FSunny.16 mph35%30.15 "Hg10 mi
5:20 PM66 °FSunny.17 mph35%30.15 "Hg10 mi
4:50 PM66 °FSunny.21 mph32%30.18 "Hg10 mi
4:20 PM68 °FPassing clouds.15 mph33%30.18 "HgN/A
3:50 PM66 °FPassing clouds.16 mph35%30.18 "HgN/A
3:20 PM66 °FSunny.17 mph35%30.21 "Hg10 mi
2:50 PM66 °FPassing clouds.15 mph35%30.21 "HgN/A
1:50 PM66 °FPassing clouds.14 mph37%30.24 "HgN/A
1:20 PM66 °FPassing clouds.12 mph40%30.24 "HgN/A
12:50 PM66 °FSunny.13 mph37%30.24 "Hg10 mi
12:20 PM64 °FPassing clouds.8 mph43%30.27 "HgN/A
11:50 AM63 °FPassing clouds.8 mph45%30.27 "HgN/A
11:20 AM61 °FPassing clouds.7 mph52%30.30 "HgN/A
10:50 AM59 °FPassing clouds.7 mph55%30.30 "HgN/A
10:20 AM57 °FPassing clouds.7 mph59%30.30 "HgN/A
9:50 AM55 °FPassing clouds.5 mph59%30.30 "HgN/A
9:20 AM52 °FPassing clouds.5 mph67%30.30 "HgN/A
8:50 AM50 °FSunny.3 mph76%30.33 "Hg10 mi
7:50 AM46 °FSunny.1 mph82%30.33 "Hg10 mi
Weather by CustomWeather, © 2015

See weather overviewHow to use our weather pages